Tracking 20721 objects as of 1-Jun-2020
HD Live streaming from Space Station
objects crossing your sky now

IRIDIUM 33 DEB

Track IRIDIUM 33 DEB now!
10-day predictions


NORAD ID: 38020
Int'l Code: 1997-051YG
Perigee: 712.3 km
Apogee: 969.0 km
Inclination: 86.3 °
Period: 101.6 minutes
Semi major axis: 7211 km
RCS: 0.0174 m2 (small)
Launch date: September 14, 1997
Source: United States (US)
Launch site: TYURATAM MISSILE AND SPACE COMPLEX (TTMTR)

Note: This is SATELLITE DEBRIS
aabbcc
Your satellite tracking list
Your tracking list is empty




NASA's NSSDC Master Catalog

Two Line Element Set (TLE):
1 38020U 97051YG  20150.98009750  .00001129  00000-0  46853-3 0  9993
2 38020  86.3096 244.5932 0177975 251.3583 106.8208 14.17602779555733
Source of the keplerian elements: AFSPC